CZ-6A DEB, 54630

Orbit data source: Space-Track

CZ-6A DEB, 54630 is space debris in SSO originally from a launch on Fri, 11 Nov 2022 UTC launched from the Taiyaun Space Center, China (TSC). Debris objects in space refer to the collection of defunct objects orbiting the Earth. Examples of debris include non-operational satellites, rocket bodies, and fragments generated from explosions, collisions, or faulty payload assembly.

Loading next visibility...
Identifier
54630, 2022-151PG
Orbit
SSO
Country
Flag of CNCN / PRC
Related business
Manufacturer
SAST
Mission
Spacecraft
Bus & Motor
Unknown
Mass
Unknown
Launch date (UTC)
2022-11-11 (3 years ago)
Launch vehicle
Unknown
Launch site
Taiyaun Space Center, China (TSC)
Object type
Payload
Rocket body
Debris
Shape & HBR
Unknown shape, 0.1 m
Radar Cross Section
Small (<0.1 m²)

Expand to show TLE details & history
Last TLE update: 23 hours ago

TLE from 23 hours ago
0 CZ-6A DEB
1 54630U 22151PG  25350.08939850  .00012806  00000-0  19938-2 0  9995
2 54630  98.6412  44.1155 0069594 128.8201 231.9245 14.71480028162454
Epoch: 2025-12-16T02:08Z
TLE epoch observation values (Epoch: 2025-12-16T02:08:44.030Z)
Latitude
-0.00004°
Longitude
-73.04657°
Altitude
689.742 km
Speed
7.495 km/s
True Right ascension
02h 56m 27s
True Declination
0° 00' 00"
Sunlit
Object was in full shadow at epoch
Visualization orbit readout
Latitude
Unknown
Longitude
Unknown
Altitude
Unknown
Speed
Unknown
Apparent Right ascension
Unknown
Apparent Declination
Unknown
Sunlit
N/A
Visualization observer readout
Local Sidereal Time
23:48:30
Azimuth
Unknown
Elevation
Unknown
Doppler factor
Unknown
Orbital elements
Apogee altitude
702.369 km
Perigee altitude
604.498 km
Semi-major axis
7,031.571 km
Eccentricity
0.00696
Inclination
98.6412°
RAAN
44.1155°
Arg. of periapsis
128.8201°
True anomaly
231.30008°
Mean anomaly
231.9245°
Eccentric anomaly
231.61196°
Mean motion
3.68099 °/min
Orbital period
97.8 mins
BSTAR
0.0019938
Loading maneuver chart data...
Computing Atmospheric mass density...
Loading historical data...
Loading historical data...
Loading historical data...
Loading historical data...
Loading historical data...
Loading historical data...
Loading historical data...

Documentation

Showing up to 5 results
|